Regional Weather Roundup
Issued by NWS Newport/Morehead, NC

Current Version | Previous Version | Graphics & Text | Print | Product List | Glossary On
Versions: 1 2 3 4 5 6 7 8 9 10 11 12 13 14 15 16 17 18 19 20 21 22 23 24 25 26 27 28 29 30 31 32 33 34 35 36 37 38 39 40 41 42 43 44 45 46 47 48 49 50
000 ASUS42 KMHX 040912 RWRMHX WEATHER ROUNDUP FOR EASTERN NORTH CAROLINA NATIONAL WEATHER SERVICE NEWPORT/MOREHEAD CITY NC 400 AM EST SUN DEC 04 2016 NOTE: "FAIR" INDICATES FEW OR NO CLOUDS BELOW 12,000 FEET WITH NO SIGNIFICANT WEATHER AND/OR OBSTRUCTIONS TO VISIBILITY NCZ015>017-031-032-045>047-102-103-041000- NORTH COAST CITY SKY/WX TMP DP RH WIND PRES REMARKS EDENTON CLOUDY 41 35 77 CALM 30.27R ELIZABETH CITY CLOUDY 42 34 73 N8 30.25F KITTY HAWK MOSUNNY 46 39 79 N6 30.22F MANTEO PTCLDY 46 38 76 N7 30.24F $$ NCZ045>047-081-094-103-104-041000- CENTRAL COAST CITY SKY/WX TMP DP RH WIND PRES REMARKS FRISCO CLOUDY 49 40 71 N8 30.22F $$ NCZ095-097-098-100-101-041000- SOUTHERN COAST CITY SKY/WX TMP DP RH WIND PRES REMARKS BEAUFORT CLOUDY 47 40 76 N5 30.24S CEDAR ISLAND NOT AVBL JACKSONVILLE CLOUDY 46 36 68 N5 30.25R PINEY ISLAND CLOUDY N/A N/A N/A N12 30.24R WILMINGTON CLOUDY 46 36 68 N7 30.24S $$ NCZ011>013-027>030-043-044-078>080-089-090>093-098-041000- COASTAL PLAIN CITY SKY/WX TMP DP RH WIND PRES REMARKS AHOSKIE MOCLDY 38 32 77 CALM 30.27S CLINTON CLOUDY 46 36 67 CALM 30.26F ELIZABETHTOWN CLOUDY 45 38 75 CALM 30.24F GOLDSBORO CLOUDY 44 34 67 N5 30.24S GREENVILLE CLOUDY 41 36 81 N3 30.27R HAVELOCK CLOUDY 47 37 68 NE5 30.25S KENANSVILLE CLOUDY 45 36 70 CALM 30.26R KINSTON N/A 42 38 86 N3 30.26S NEW BERN CLOUDY 45 35 68 N6 30.26S RICHLANDS CLOUDY 44 38 79 CALM 30.25F ROCKY MOUNT CLOUDY 41 35 79 NE5 30.27S WASHINGTON CLOUDY 41 35 79 N3 30.27R WHITEVILLE CLOUDY 46 38 75 CALM 30.24S $$ AMZ130-135-150-152-154-156-158-170-250-252-270-ANZ085-086-088-633-658-670-041000- MARINE OBSERVATIONS STATION/POSITION TIME TEMP WIND PRES WAVE SWELL AIR SEA DIR/SP/G HT/PER HT/PER (UTC) (F) (DEG/KT/KT) (MB) (FT/S) (FT/S) CHESAPEAKE LIGHT NOT AVBL 64 E VA BEACH 0850 49 60 360/ 16/ 19 1023.0 6/ 7 DUCK 0836 47 55 340/ 12/ 14 1023.1 2 E DUCK NOT AVBL OREGON INLET 0836 48 53 360/ 10/ 14 1023.5 13E OREGON INLT 0900 60 N/A 5/ 6 5/ 6 HATTERAS CG 0836 49 57 10/ 15/ 17 1022.8 DIAMOND BUOY 0850 53 75 20/ 16/ 21 1022.9 5/ 9 3/ 9 CAPE LOOKOUT 0900 49 10/ 10/ 12 1023.5 BEAUFORT LAB 0848 47 55 20/ 3/ 5 1022.8 30 SE NEW RVR IN 0808 54 71 50/ 10/ 16 1023.6 30 SE NEW RVR IN NOT AVBL 27 SE WRIGHTSVLE 0808 55 68 50/ 12/ 17 1022.9 5 SE WRIGHTSVLE 0808 51 63 50/ 12/ 17 1022.9 225 S CAPE HAT 0850 64 73 40/ 12/ 16 1020.9 5/ 9 5/ 9 41 SE CHARLESTON 0850 61 74 50/ 8/ 12 1021.8 3/ 8 2/ 8 $$

USA.gov is the U.S. government's official web portal to all federal, state and local government web resources and services.